User: anonymous   Login
Location: Los Gatos B&B
(42.6926°N, 77.0646°W)
Time: 09:51:04
(UTC-04:00)
Language:

Cosmos 2263 Rocket - Orbit

View from above orbital plane
View from above orbital plane
View from above satellite
View from above satellite

Ground track
Ground track

The orbit data is extracted from the following two-line orbital elements,

1 22803U 93059B   17173.59155996 -.00000124 +00000-0 -37840-4 0  9994
2 22803 070.9889 238.0497 0016664 010.1505 349.9951 14.16771631229040
Epoch (UTC): 22 June 2017 14:11:50
Eccentricity: 0.0016664
inclination: 70.9889°
perigee height: 824 km
apogee height: 848 km
right ascension of ascending node: 238.0497°
argument of perigee: 10.1505°
revolutions per day: 14.16771631
mean anomaly at epoch: 349.9951°
orbit number at epoch: 22904

The dashed part of the orbit path shows where the satellite is in the earth's shadow,  

DLR